Weather History for KLVM - April, 2013

Change the Weather History Date:

Sunday, April 21, 2013

  Actual Average Record
Temperature  
Mean Temperature 32 °F 43 °F  
Max Temperature 43 °F 57 °F 79 °F (1989)
Min Temperature 23 °F 30 °F 10 °F (2008)
Degree Days  
Heating Degree Days 33 22  
Month to date heating degree days 507  
Since 1 July heating degree days 6766  
Cooling Degree Days 0 0  
Month to date cooling degree days 0  
Year to date cooling degree days 0  
Moisture  
Dew Point 24 °F    
Average Humidity 81    
Maximum Humidity 93    
Minimum Humidity 57    
Precipitation  
Precipitation 0.02 in 0.06 in 0.30 in (1971)
Month to date precipitation 1.14  
Year to date precipitation 2.97  
Sea Level Pressure  
Sea Level Pressure 30.07 in    
Wind  
Wind Speed 16 mph (East)    
Max Wind Speed 24 mph    
Max Gust Speed 31 mph    
Visibility 4 miles    
Events Fog , Snow    
T = Trace of Precipitation, MM = Missing Value Source: NWS Daily Summary

Daily Weather History Graph

Daily Weather History Graph

Search for Another Location

Airport or City:

Trip Planner

Search our weather history database for the weather conditions in past years. The results will help you decide how hot, cold, wet, or windy it might be!

Date:

Astronomy

Apr. 21, 2013 Rise Set
Actual Time 6:25 AM MDT 8:16 PM MDT
Civil Twilight 5:53 AM MDT 8:48 PM MDT
Nautical Twilight 5:14 AM MDT 9:27 PM MDT
Astronomical Twilight 4:32 AM MDT 10:10 PM MDT
Moon 3:53 PM MDT (4/21) 4:02 AM MDT (4/21)
Length of Visible Light 14h 55m
Length of Day
13h 51m
Waxing Gibbous, 80% of the Moon is Illuminated
Apr 21
Waxing Gibbous
Apr 25
Full
May 2
Last Quarter
May 9
New
May 17
First Quarter

Hourly Weather History & Observations

Time (MDT) Temp. Windchill Dew Point Humidity Pressure Visibility Wind Dir Wind Speed Gust Speed Precip Events Conditions
12:53 AM 41.0 °F 34.3 °F 27.0 °F 57% 29.96 in 10.0 mi West 11.5 mph - N/A   Partly Cloudy
1:53 AM 39.9 °F 32.5 °F 26.1 °F 58% 29.96 in 10.0 mi West 12.7 mph - N/A   Scattered Clouds
2:53 AM 37.9 °F 30.9 °F 25.0 °F 60% 29.96 in 10.0 mi WSW 10.4 mph - N/A   Scattered Clouds
3:53 AM 37.9 °F - 26.1 °F 62% 29.96 in 10.0 mi Calm Calm - N/A   Overcast
4:53 AM 37.9 °F 32.7 °F 28.9 °F 70% 29.96 in 10.0 mi WSW 6.9 mph - N/A   Overcast
5:53 AM 41.0 °F 32.8 °F 27.0 °F 57% 29.97 in 10.0 mi West 16.1 mph - N/A   Overcast
6:44 AM 30.2 °F 18.5 °F 24.8 °F 80% 30.02 in 10.0 mi ENE 17.3 mph 27.6 mph N/A   Overcast
6:53 AM 30.0 °F 18.3 °F 23.0 °F 75% 30.05 in 10.0 mi ENE 17.3 mph - N/A   Overcast
7:53 AM 30.0 °F 19.1 °F 21.9 °F 72% 30.09 in 10.0 mi East 15.0 mph - N/A   Overcast
8:53 AM 28.9 °F 17.7 °F 23.0 °F 78% 30.13 in 2.5 mi East 15.0 mph - 0.00 in Snow Light Snow
9:13 AM 30.2 °F 19.8 °F 24.8 °F 80% 30.08 in 2.5 mi East 13.8 mph - 0.00 in Snow Light Snow
9:24 AM 28.4 °F 18.0 °F 24.8 °F 86% 30.08 in 3.0 mi East 12.7 mph - 0.00 in Snow Light Snow
9:34 AM 28.4 °F 17.0 °F 24.8 °F 86% 30.08 in 5.0 mi East 15.0 mph - 0.00 in Snow Light Snow
9:43 AM 28.4 °F 17.5 °F 24.8 °F 86% 30.07 in 1.8 mi East 13.8 mph - 0.00 in Snow Light Snow
9:53 AM 30.0 °F 20.5 °F 25.0 °F 82% 30.12 in 2.0 mi East 11.5 mph - 0.00 in Snow Light Snow
10:02 AM 30.2 °F 20.2 °F 26.6 °F 86% 30.07 in 6.0 mi ENE 12.7 mph - 0.00 in Snow Light Snow
10:32 AM 32.0 °F 22.5 °F 24.8 °F 75% 30.06 in 10.0 mi East 12.7 mph - 0.00 in   Overcast
10:45 AM 32.0 °F 22.1 °F 21.2 °F 64% 30.07 in 10.0 mi East 13.8 mph - 0.00 in   Overcast
10:53 AM 32.0 °F 22.5 °F 23.0 °F 69% 30.11 in 10.0 mi East 12.7 mph - 0.00 in   Overcast
11:53 AM 33.1 °F 23.4 °F 24.1 °F 70% 30.10 in 10.0 mi East 13.8 mph - N/A   Overcast
12:53 PM 33.1 °F 22.2 °F 24.1 °F 70% 30.09 in 10.0 mi ENE 17.3 mph - N/A   Overcast
1:46 PM 33.8 °F 22.8 °F 26.6 °F 75% 30.03 in 1.8 mi East 18.4 mph - 0.00 in Snow Light Snow
1:53 PM 32.0 °F 20.1 °F 26.1 °F 79% 30.09 in 1.0 mi East 19.6 mph - 0.00 in Snow Light Snow
2:00 PM 32.0 °F 20.8 °F 26.6 °F 80% 30.03 in 0.8 mi East 17.3 mph - 0.00 in Snow Light Snow
2:11 PM 32.0 °F 20.8 °F 28.4 °F 87% 30.03 in 1.2 mi East 17.3 mph - 0.00 in Snow Light Snow
2:24 PM 32.0 °F 20.1 °F 28.4 °F 87% 30.03 in 3.0 mi East 19.6 mph - 0.00 in Snow Light Snow
2:44 PM 33.8 °F 22.8 °F 28.4 °F 81% 30.02 in 10.0 mi East 18.4 mph 26.5 mph 0.00 in   Overcast
2:53 PM 32.0 °F 20.1 °F 27.0 °F 82% 30.09 in 10.0 mi East 19.6 mph - 0.00 in   Overcast
3:53 PM 30.9 °F 17.8 °F 25.0 °F 79% 30.09 in 2.0 mi East 23.0 mph 28.8 mph 0.00 in Snow Light Snow
4:01 PM 30.2 °F 17.4 °F 24.8 °F 80% 30.02 in 1.0 mi East 20.7 mph - 0.00 in Snow Light Snow
4:10 PM 30.2 °F 17.8 °F 24.8 °F 80% 30.01 in 0.5 mi East 19.6 mph 27.6 mph 0.00 in Snow Snow
4:33 PM 28.4 °F 14.7 °F 24.8 °F 86% 30.02 in 1.0 mi East 21.9 mph 27.6 mph 0.00 in Snow Light Snow
4:45 PM 28.4 °F 15.8 °F 24.8 °F 86% 30.03 in 1.5 mi East 18.4 mph 25.3 mph 0.00 in Snow Light Snow
4:53 PM 28.9 °F 16.1 °F 25.0 °F 85% 30.10 in 1.2 mi East 19.6 mph 25.3 mph 0.00 in Snow Light Snow
4:57 PM 28.4 °F 15.4 °F 24.8 °F 86% 30.03 in 0.8 mi East 19.6 mph - 0.00 in Snow Light Snow
5:05 PM 28.4 °F 15.8 °F 24.8 °F 86% 30.03 in 0.5 mi East 18.4 mph - 0.01 in Fog , Snow Snow
5:17 PM 28.4 °F 15.8 °F 24.8 °F 86% 30.04 in 0.5 mi East 18.4 mph 27.6 mph 0.01 in Fog , Snow Light Snow
5:32 PM 28.4 °F 14.4 °F 24.8 °F 86% 30.03 in 1.0 mi East 23.0 mph 26.5 mph 0.01 in Snow Light Snow
5:44 PM 28.4 °F 15.4 °F 24.8 °F 86% 30.04 in 1.2 mi East 19.6 mph 25.3 mph 0.01 in Snow Light Snow
5:53 PM 28.0 °F 14.9 °F 24.1 °F 85% 30.11 in 1.2 mi East 19.6 mph - 0.01 in Snow Light Snow
6:01 PM 28.4 °F 15.8 °F 24.8 °F 86% 30.04 in 1.0 mi East 18.4 mph 31.1 mph 0.00 in Snow Light Snow
6:04 PM 28.4 °F 14.7 °F 24.8 °F 86% 30.04 in 1.2 mi East 21.9 mph 31.1 mph 0.00 in Snow Light Snow
6:21 PM 28.4 °F 15.4 °F 24.8 °F 86% 30.04 in 1.0 mi East 19.6 mph - 0.00 in Snow Light Snow
6:26 PM 28.4 °F 15.4 °F 24.8 °F 86% 30.05 in 0.5 mi East 19.6 mph 26.5 mph 0.00 in Fog , Snow Snow
6:39 PM 28.4 °F 14.7 °F 24.8 °F 86% 30.05 in 1.0 mi East 21.9 mph 29.9 mph 0.01 in Snow Light Snow
6:53 PM 28.0 °F 13.6 °F 24.1 °F 85% 30.16 in 1.2 mi East 24.2 mph - 0.01 in Snow Light Snow
7:06 PM 28.4 °F 14.7 °F 23.0 °F 80% 30.06 in 2.5 mi East 21.9 mph 31.1 mph 0.00 in Snow Light Snow
7:14 PM 28.4 °F 14.4 °F 24.8 °F 86% 30.05 in 3.0 mi East 23.0 mph 31.1 mph 0.00 in Snow Light Snow
7:24 PM 26.6 °F 12.7 °F 24.8 °F 93% 30.06 in 2.5 mi East 20.7 mph 29.9 mph 0.00 in Snow Light Snow
7:31 PM 28.4 °F 15.1 °F 24.8 °F 86% 30.06 in 2.5 mi East 20.7 mph 27.6 mph 0.00 in Snow Light Snow
7:41 PM 28.4 °F 15.1 °F 24.8 °F 86% 30.06 in 4.0 mi East 20.7 mph 28.8 mph 0.00 in Snow Light Snow
7:53 PM 27.0 °F 12.5 °F 23.0 °F 85% 30.17 in 4.0 mi East 23.0 mph 29.9 mph 0.00 in Snow Light Snow
8:06 PM 26.6 °F 13.1 °F 24.8 °F 93% 30.07 in 2.0 mi East 19.6 mph 26.5 mph 0.00 in Snow Light Snow
8:20 PM 26.6 °F 12.4 °F 23.0 °F 86% 30.07 in 1.8 mi East 21.9 mph 28.8 mph 0.00 in Snow Light Snow
8:35 PM 26.6 °F 12.0 °F 21.2 °F 80% 30.08 in 1.8 mi East 23.0 mph 29.9 mph 0.00 in Snow Light Snow
8:42 PM 26.6 °F 13.1 °F 21.2 °F 80% 30.08 in 2.5 mi East 19.6 mph 29.9 mph 0.00 in Snow Light Snow
8:51 PM 24.8 °F 10.0 °F 21.2 °F 86% 30.08 in 4.0 mi East 21.9 mph 26.5 mph 0.00 in Snow Light Snow
8:53 PM 25.0 °F 10.6 °F 21.0 °F 85% 30.21 in 4.0 mi East 20.7 mph - 0.00 in Snow Light Snow
9:01 PM 24.8 °F 10.3 °F 21.2 °F 86% 30.09 in 5.0 mi East 20.7 mph - 0.00 in Snow Light Snow
9:09 PM 24.8 °F 10.7 °F 21.2 °F 86% 30.10 in 5.0 mi East 19.6 mph 26.5 mph 0.00 in Snow Light Snow
9:22 PM 24.8 °F 10.7 °F 21.2 °F 86% 30.11 in 6.0 mi East 19.6 mph - 0.00 in Snow Light Snow
9:53 PM 24.1 °F 9.4 °F 19.9 °F 84% 30.25 in 2.0 mi East 20.7 mph - 0.00 in Snow Light Snow
10:03 PM 24.8 °F 10.3 °F 19.4 °F 80% 30.13 in 1.8 mi East 20.7 mph - 0.00 in Snow Light Snow
10:20 PM 24.8 °F 10.3 °F 19.4 °F 80% 30.14 in 2.5 mi East 20.7 mph - 0.00 in Snow Light Snow
10:46 PM 24.8 °F 11.1 °F 19.4 °F 80% 30.14 in 1.5 mi East 18.4 mph - 0.00 in Snow Light Snow
10:53 PM 24.1 °F 9.4 °F 19.9 °F 84% 30.26 in 2.0 mi East 20.7 mph - 0.00 in Snow Light Snow
11:11 PM 24.8 °F 10.7 °F 19.4 °F 80% 30.14 in 3.0 mi East 19.6 mph - 0.00 in Snow Light Snow
11:39 PM 23.0 °F 9.6 °F 19.4 °F 86% 30.15 in 4.0 mi East 16.1 mph - 0.00 in Snow Light Snow
11:53 PM 23.0 °F 8.3 °F 19.0 °F 85% 30.27 in 3.0 mi East 19.6 mph - 0.00 in Snow Light Snow